Year,Month,Day,Hour,Minute,Value (Times are PST for temperature in C)
2012,08,15,00,00,19.40
2012,08,15,00,01,19.40
2012,08,15,00,02,19.40
2012,08,15,00,03,19.40
2012,08,15,00,04,19.40
2012,08,15,00,05,19.40
2012,08,15,00,06,19.30
2012,08,15,00,07,19.30
2012,08,15,00,08,19.30
2012,08,15,00,09,19.30
2012,08,15,00,10,19.30
2012,08,15,00,11,19.30
2012,08,15,00,12,19.30
2012,08,15,00,13,19.30
2012,08,15,00,14,19.30
2012,08,15,00,15,19.30
2012,08,15,00,16,19.30
2012,08,15,00,17,19.30
2012,08,15,00,18,19.30
2012,08,15,00,19,19.30
2012,08,15,00,20,19.30
2012,08,15,00,21,19.30
2012,08,15,00,22,19.30
2012,08,15,00,23,19.30
2012,08,15,00,24,19.30
2012,08,15,00,25,19.30
2012,08,15,00,26,19.30
2012,08,15,00,27,19.30
2012,08,15,00,28,19.30
2012,08,15,00,29,19.20
2012,08,15,00,30,19.20
2012,08,15,00,31,19.20
2012,08,15,00,32,19.20
2012,08,15,00,33,19.20
2012,08,15,00,34,19.20
2012,08,15,00,35,19.20
2012,08,15,00,36,19.20
2012,08,15,00,37,19.10
2012,08,15,00,38,19.10
2012,08,15,00,39,19.10
2012,08,15,00,40,19.10
2012,08,15,00,41,19.00
2012,08,15,00,42,19.00
2012,08,15,00,43,19.00
2012,08,15,00,44,18.90
2012,08,15,00,45,18.90
2012,08,15,00,46,18.90
2012,08,15,00,47,18.80
2012,08,15,00,48,18.80
2012,08,15,00,49,18.80
2012,08,15,00,50,18.80
2012,08,15,00,51,18.80
2012,08,15,00,52,18.70
2012,08,15,00,53,18.70
2012,08,15,00,54,18.70
2012,08,15,00,55,18.70
2012,08,15,00,56,18.70
2012,08,15,00,57,18.70
2012,08,15,00,58,18.70
2012,08,15,00,59,18.70
2012,08,15,01,00,18.70
2012,08,15,01,01,18.70
2012,08,15,01,02,18.60
2012,08,15,01,03,18.60
2012,08,15,01,04,18.60
2012,08,15,01,05,18.60
2012,08,15,01,06,18.60
2012,08,15,01,07,18.60
2012,08,15,01,08,18.60
2012,08,15,01,09,18.60
2012,08,15,01,10,18.50
2012,08,15,01,11,18.50
2012,08,15,01,12,18.50
2012,08,15,01,13,18.50
2012,08,15,01,14,18.50
2012,08,15,01,15,18.40
2012,08,15,01,16,18.40
2012,08,15,01,17,18.40
2012,08,15,01,18,18.40
2012,08,15,01,19,18.40
2012,08,15,01,20,18.40
2012,08,15,01,21,18.40
2012,08,15,01,22,18.40
2012,08,15,01,23,18.40
2012,08,15,01,24,18.40
2012,08,15,01,25,18.40
2012,08,15,01,26,18.40
2012,08,15,01,27,18.40
2012,08,15,01,28,18.40
2012,08,15,01,29,18.50
2012,08,15,01,30,18.50
2012,08,15,01,31,18.50
2012,08,15,01,32,18.50
2012,08,15,01,33,18.50
2012,08,15,01,34,18.50
2012,08,15,01,35,18.50
2012,08,15,01,36,18.50
2012,08,15,01,37,18.50
2012,08,15,01,38,18.50
2012,08,15,01,39,18.50
2012,08,15,01,40,18.50
2012,08,15,01,41,18.50
2012,08,15,01,42,18.50
2012,08,15,01,43,18.50
2012,08,15,01,44,18.50
2012,08,15,01,45,18.50
2012,08,15,01,46,18.50
2012,08,15,01,47,18.50
2012,08,15,01,48,18.50
2012,08,15,01,49,18.50
2012,08,15,01,50,18.50
2012,08,15,01,51,18.50
2012,08,15,01,52,18.50
2012,08,15,01,53,18.50
2012,08,15,01,54,18.50
2012,08,15,01,55,18.40
2012,08,15,01,56,18.40
2012,08,15,01,57,18.40
2012,08,15,01,58,18.40
2012,08,15,01,59,18.40
2012,08,15,02,00,18.40
2012,08,15,02,01,18.40
2012,08,15,02,02,18.40
2012,08,15,02,03,18.40
2012,08,15,02,04,18.40
2012,08,15,02,05,18.30
2012,08,15,02,06,18.30
2012,08,15,02,07,18.30
2012,08,15,02,08,18.30
2012,08,15,02,09,18.20
2012,08,15,02,10,18.20
2012,08,15,02,11,18.20
2012,08,15,02,12,18.20
2012,08,15,02,13,18.20
2012,08,15,02,14,18.20
2012,08,15,02,15,18.10
2012,08,15,02,16,18.10
2012,08,15,02,17,18.10
2012,08,15,02,18,18.10
2012,08,15,02,19,18.10
2012,08,15,02,20,18.00
2012,08,15,02,21,18.00
2012,08,15,02,22,18.00
2012,08,15,02,23,17.90
2012,08,15,02,24,17.90
2012,08,15,02,25,17.90
2012,08,15,02,26,17.90
2012,08,15,02,27,17.90
2012,08,15,02,28,17.90
2012,08,15,02,29,17.90
2012,08,15,02,30,17.80
2012,08,15,02,31,17.80
2012,08,15,02,32,17.80
2012,08,15,02,33,17.80
2012,08,15,02,34,17.80
2012,08,15,02,35,17.80
2012,08,15,02,36,17.80
2012,08,15,02,37,17.80
2012,08,15,02,38,17.70
2012,08,15,02,39,17.70
2012,08,15,02,40,17.70
2012,08,15,02,41,17.70
2012,08,15,02,42,17.70
2012,08,15,02,43,17.70
2012,08,15,02,44,17.70
2012,08,15,02,45,17.70
2012,08,15,02,46,17.70
2012,08,15,02,47,17.70
2012,08,15,02,48,17.70
2012,08,15,02,49,17.70
2012,08,15,02,50,17.70
2012,08,15,02,51,17.70
2012,08,15,02,52,17.70
2012,08,15,02,53,17.60
2012,08,15,02,54,17.60
2012,08,15,02,55,17.60
2012,08,15,02,56,17.60
2012,08,15,02,57,17.60
2012,08,15,02,58,17.60
2012,08,15,02,59,17.60
2012,08,15,03,00,17.70
2012,08,15,03,01,17.70
2012,08,15,03,02,17.70
2012,08,15,03,06,17.70
2012,08,15,03,07,17.70
2012,08,15,03,08,17.70
2012,08,15,03,09,17.70
2012,08,15,03,10,17.70
2012,08,15,03,11,17.70
2012,08,15,03,12,17.70
2012,08,15,03,13,17.70
2012,08,15,03,14,17.70
2012,08,15,03,15,17.70
2012,08,15,03,16,17.70
2012,08,15,03,17,17.70
2012,08,15,03,18,17.70
2012,08,15,03,19,17.70
2012,08,15,03,20,17.70
2012,08,15,03,21,17.70
2012,08,15,03,22,17.70
2012,08,15,03,23,17.70
2012,08,15,03,24,17.70
2012,08,15,03,25,17.70
2012,08,15,03,26,17.80
2012,08,15,03,27,17.80
2012,08,15,03,28,17.80
2012,08,15,03,29,17.90
2012,08,15,03,30,17.90
2012,08,15,03,31,18.00
2012,08,15,03,32,18.10
2012,08,15,03,33,18.10
2012,08,15,03,34,18.20
2012,08,15,03,35,18.20
2012,08,15,03,36,18.20
2012,08,15,03,37,18.20
2012,08,15,03,38,18.20
2012,08,15,03,39,18.20
2012,08,15,03,40,18.20
2012,08,15,03,41,18.30
2012,08,15,03,42,18.30
2012,08,15,03,43,18.30
2012,08,15,03,44,18.30
2012,08,15,03,45,18.30
2012,08,15,03,46,18.30
2012,08,15,03,47,18.30
2012,08,15,03,48,18.30
2012,08,15,03,49,18.30
2012,08,15,03,50,18.30
2012,08,15,03,51,18.30
2012,08,15,03,52,18.30
2012,08,15,03,53,18.30
2012,08,15,03,54,18.30
2012,08,15,03,55,18.30
2012,08,15,03,56,18.30
2012,08,15,03,57,18.30
2012,08,15,03,58,18.30
2012,08,15,03,59,18.30
2012,08,15,04,00,18.30
2012,08,15,04,01,18.30
2012,08,15,04,02,18.20
2012,08,15,04,03,18.20
2012,08,15,04,04,18.20
2012,08,15,04,05,18.20
2012,08,15,04,06,18.20
2012,08,15,04,07,18.20
2012,08,15,04,08,18.20
2012,08,15,04,09,18.20
2012,08,15,04,10,18.20
2012,08,15,04,11,18.20
2012,08,15,04,12,18.20
2012,08,15,04,13,18.10
2012,08,15,04,14,18.10
2012,08,15,04,15,18.10
2012,08,15,04,16,18.10
2012,08,15,04,17,18.10
2012,08,15,04,18,18.10
2012,08,15,04,19,18.10
2012,08,15,04,20,18.10
2012,08,15,04,21,18.00
2012,08,15,04,22,18.00
2012,08,15,04,23,18.00
2012,08,15,04,24,18.00
2012,08,15,04,25,17.90
2012,08,15,04,26,17.90
2012,08,15,04,27,17.90
2012,08,15,04,28,18.00
2012,08,15,04,29,18.00
2012,08,15,04,30,18.00
2012,08,15,04,31,18.10
2012,08,15,04,32,18.10
2012,08,15,04,33,18.10
2012,08,15,04,34,18.10
2012,08,15,04,35,18.10
2012,08,15,04,36,18.10
2012,08,15,04,37,18.10
2012,08,15,04,38,18.10
2012,08,15,04,39,18.10
2012,08,15,04,40,18.10
2012,08,15,04,41,18.10
2012,08,15,04,42,18.10
2012,08,15,04,43,18.10
2012,08,15,04,44,18.10
2012,08,15,04,45,18.10
2012,08,15,04,46,18.00
2012,08,15,04,47,18.00
2012,08,15,04,48,18.00
2012,08,15,04,49,18.00
2012,08,15,04,50,17.90
2012,08,15,04,51,17.90
2012,08,15,04,52,17.90
2012,08,15,04,53,17.90
2012,08,15,04,54,17.90
2012,08,15,04,55,17.90
2012,08,15,04,56,17.90
2012,08,15,04,57,17.90
2012,08,15,04,58,17.90
2012,08,15,04,59,17.90
2012,08,15,05,00,17.90
2012,08,15,05,01,17.90
2012,08,15,05,02,17.90
2012,08,15,05,03,17.90
2012,08,15,05,04,18.00
2012,08,15,05,05,18.00
2012,08,15,05,06,18.00
2012,08,15,05,07,18.00
2012,08,15,05,08,18.00
2012,08,15,05,09,18.00
2012,08,15,05,10,18.00
2012,08,15,05,11,18.00
2012,08,15,05,12,18.00
2012,08,15,05,13,18.10
2012,08,15,05,14,18.10
2012,08,15,05,15,18.10
2012,08,15,05,16,18.00
2012,08,15,05,17,18.00
2012,08,15,05,18,18.00
2012,08,15,05,19,18.00
2012,08,15,05,20,18.00
2012,08,15,05,21,18.00
2012,08,15,05,22,18.00
2012,08,15,05,23,18.00
2012,08,15,05,24,18.00
2012,08,15,05,25,18.00
2012,08,15,05,26,17.90
2012,08,15,05,27,17.90
2012,08,15,05,28,17.90
2012,08,15,05,29,18.00
2012,08,15,05,30,18.00
2012,08,15,05,31,18.00
2012,08,15,05,32,18.00
2012,08,15,05,33,18.00
2012,08,15,05,34,18.00
2012,08,15,05,35,18.00
2012,08,15,05,36,18.00
2012,08,15,05,37,17.90
2012,08,15,05,38,17.90
2012,08,15,05,39,17.90
2012,08,15,05,40,17.90
2012,08,15,05,41,17.90
2012,08,15,05,42,17.90
2012,08,15,05,43,17.90
2012,08,15,05,44,17.80
2012,08,15,05,45,17.80
2012,08,15,05,46,17.80
2012,08,15,05,47,17.80
2012,08,15,05,48,17.80
2012,08,15,05,49,17.80
2012,08,15,05,50,17.80
2012,08,15,05,51,17.80
2012,08,15,05,52,17.80
2012,08,15,05,53,17.80
2012,08,15,05,54,17.80
2012,08,15,05,55,17.80
2012,08,15,05,56,17.80
2012,08,15,05,57,17.80
2012,08,15,05,58,17.80
2012,08,15,05,59,17.80
2012,08,15,06,00,17.80
2012,08,15,06,01,17.80
2012,08,15,06,02,17.80
2012,08,15,06,03,17.80
2012,08,15,06,04,17.80
2012,08,15,06,05,17.80
2012,08,15,06,06,17.80
2012,08,15,06,07,17.80
2012,08,15,06,08,17.80
2012,08,15,06,09,17.80
2012,08,15,06,10,17.80
2012,08,15,06,11,17.80
2012,08,15,06,12,17.80
2012,08,15,06,13,17.80
2012,08,15,06,14,17.80
2012,08,15,06,15,17.80
2012,08,15,06,16,17.80
2012,08,15,06,17,17.70
2012,08,15,06,18,17.70
2012,08,15,06,19,17.70
2012,08,15,06,20,17.70
2012,08,15,06,21,17.70
2012,08,15,06,22,17.70
2012,08,15,06,23,17.70
2012,08,15,06,24,17.70
2012,08,15,06,25,17.60
2012,08,15,06,26,17.60
2012,08,15,06,27,17.60
2012,08,15,06,28,17.60
2012,08,15,06,29,17.60
2012,08,15,06,30,17.60
2012,08,15,06,31,17.60
2012,08,15,06,32,17.60
2012,08,15,06,33,17.60
2012,08,15,06,34,17.60
2012,08,15,06,35,17.60
2012,08,15,06,36,17.60
2012,08,15,06,37,17.60
2012,08,15,06,38,17.60
2012,08,15,06,39,17.70
2012,08,15,06,40,17.70
2012,08,15,06,41,17.70
2012,08,15,06,42,17.70
2012,08,15,06,43,17.70
2012,08,15,06,44,17.70
2012,08,15,06,45,17.80
2012,08,15,06,46,17.70
2012,08,15,06,47,17.70
2012,08,15,06,48,17.70
2012,08,15,06,49,17.70
2012,08,15,06,50,17.70
2012,08,15,06,51,17.70
2012,08,15,06,52,17.70
2012,08,15,06,53,17.70
2012,08,15,06,54,17.70
2012,08,15,06,55,17.80
2012,08,15,06,56,17.70
2012,08,15,06,57,17.80
2012,08,15,06,58,17.80
2012,08,15,06,59,17.80
2012,08,15,07,00,17.80
2012,08,15,07,01,17.70
2012,08,15,07,02,17.70
2012,08,15,07,03,17.70
2012,08,15,07,04,17.70
2012,08,15,07,05,17.80
2012,08,15,07,06,17.80
2012,08,15,07,07,17.80
2012,08,15,07,08,17.80
2012,08,15,07,09,17.80
2012,08,15,07,10,17.80
2012,08,15,07,11,17.80
2012,08,15,07,12,17.80
2012,08,15,07,13,17.80
2012,08,15,07,14,17.80
2012,08,15,07,15,17.80
2012,08,15,07,16,17.80
2012,08,15,07,17,17.90
2012,08,15,07,18,17.90
2012,08,15,07,19,17.90
2012,08,15,07,20,17.90
2012,08,15,07,21,17.90
2012,08,15,07,22,17.90
2012,08,15,07,23,17.90
2012,08,15,07,24,17.90
2012,08,15,07,25,18.00
2012,08,15,07,26,18.00
2012,08,15,07,27,18.00
2012,08,15,07,28,18.10
2012,08,15,07,29,18.10
2012,08,15,07,30,18.10
2012,08,15,07,31,18.10
2012,08,15,07,32,18.10
2012,08,15,07,33,18.10
2012,08,15,07,34,18.10
2012,08,15,07,35,18.20
2012,08,15,07,36,18.20
2012,08,15,07,37,18.20
2012,08,15,07,38,18.20
2012,08,15,07,39,18.20
2012,08,15,07,40,18.30
2012,08,15,07,41,18.30
2012,08,15,07,42,18.30
2012,08,15,07,43,18.30
2012,08,15,07,44,18.40
2012,08,15,07,45,18.40
2012,08,15,07,46,18.40
2012,08,15,07,47,18.50
2012,08,15,07,48,18.50
2012,08,15,07,49,18.60
2012,08,15,07,50,18.60
2012,08,15,07,51,18.60
2012,08,15,07,52,18.70
2012,08,15,07,53,18.70
2012,08,15,07,54,18.80
2012,08,15,07,55,18.80
2012,08,15,07,56,18.90
2012,08,15,07,57,18.90
2012,08,15,07,58,19.00
2012,08,15,07,59,19.10
2012,08,15,08,00,19.10
2012,08,15,08,01,19.10
2012,08,15,08,02,19.20
2012,08,15,08,03,19.20
2012,08,15,08,04,19.30
2012,08,15,08,05,19.30
2012,08,15,08,06,19.30
2012,08,15,08,07,19.40
2012,08,15,08,08,19.40
2012,08,15,08,09,19.50
2012,08,15,08,10,19.60
2012,08,15,08,11,19.70
2012,08,15,08,12,19.70
2012,08,15,08,13,19.80
2012,08,15,08,14,19.90
2012,08,15,08,15,19.90
2012,08,15,08,16,20.00
2012,08,15,08,17,20.10
2012,08,15,08,18,20.20
2012,08,15,08,19,20.30
2012,08,15,08,20,20.30
2012,08,15,08,21,20.40
2012,08,15,08,22,20.40
2012,08,15,08,23,20.50
2012,08,15,08,24,20.60
2012,08,15,08,25,20.70
2012,08,15,08,26,20.70
2012,08,15,08,27,20.80
2012,08,15,08,28,20.90
2012,08,15,08,29,20.90
2012,08,15,08,30,21.00
2012,08,15,08,31,21.10
2012,08,15,08,32,21.10
2012,08,15,08,33,21.20
2012,08,15,08,34,21.30
2012,08,15,08,35,21.40
2012,08,15,08,36,21.50
2012,08,15,08,37,21.60
2012,08,15,08,38,21.60
2012,08,15,08,39,21.70
2012,08,15,08,40,21.80
2012,08,15,08,41,21.80
2012,08,15,08,42,21.80
2012,08,15,08,43,21.90
2012,08,15,08,44,22.00
2012,08,15,08,45,22.00
2012,08,15,08,46,22.10
2012,08,15,08,47,22.20
2012,08,15,08,48,22.20
2012,08,15,08,49,22.30
2012,08,15,08,50,22.30
2012,08,15,08,51,22.40
2012,08,15,08,52,22.50
2012,08,15,08,53,22.60
2012,08,15,08,54,22.60
2012,08,15,08,55,22.70
2012,08,15,08,56,22.80
2012,08,15,08,57,22.90
2012,08,15,08,58,23.00
2012,08,15,08,59,23.10
2012,08,15,09,00,23.20
2012,08,15,09,01,23.20
2012,08,15,09,02,23.30
2012,08,15,09,03,23.30
2012,08,15,09,04,23.40
2012,08,15,09,05,23.50
2012,08,15,09,06,23.50
2012,08,15,09,07,23.60
2012,08,15,09,08,23.60
2012,08,15,09,09,23.70
2012,08,15,09,10,23.80
2012,08,15,09,11,23.80
2012,08,15,09,12,23.80
2012,08,15,09,13,23.80
2012,08,15,09,14,23.90
2012,08,15,09,15,23.90
2012,08,15,09,16,24.00
2012,08,15,09,17,24.00
2012,08,15,09,18,24.10
2012,08,15,09,19,24.10
2012,08,15,09,20,24.10
2012,08,15,09,21,24.10
2012,08,15,09,22,24.20
2012,08,15,09,23,24.20
2012,08,15,09,24,24.30
2012,08,15,09,25,24.30
2012,08,15,09,26,24.40
2012,08,15,09,27,24.50
2012,08,15,09,28,24.50
2012,08,15,09,29,24.60
2012,08,15,09,30,24.70
2012,08,15,09,31,24.80
2012,08,15,09,32,24.80
2012,08,15,09,33,24.90
2012,08,15,09,34,24.90
2012,08,15,09,35,25.00
2012,08,15,09,36,25.00
2012,08,15,09,37,25.00
2012,08,15,09,38,25.00
2012,08,15,09,39,25.00
2012,08,15,09,40,25.00
2012,08,15,09,41,25.00
2012,08,15,09,42,25.10
2012,08,15,09,43,25.10
2012,08,15,09,44,25.10
2012,08,15,09,45,25.10
2012,08,15,09,46,25.20
2012,08,15,09,47,25.30
2012,08,15,09,48,25.30
2012,08,15,09,49,25.30
2012,08,15,09,50,25.40
2012,08,15,09,51,25.40
2012,08,15,09,52,25.50
2012,08,15,09,53,25.50
2012,08,15,09,54,25.60
2012,08,15,09,55,25.60
2012,08,15,09,56,25.60
2012,08,15,09,57,25.60
2012,08,15,09,58,25.60
2012,08,15,09,59,25.60
2012,08,15,10,00,25.60
2012,08,15,10,01,25.50
2012,08,15,10,02,25.50
2012,08,15,10,03,25.50
2012,08,15,10,04,25.50
2012,08,15,10,05,25.50
2012,08,15,10,06,25.60
2012,08,15,10,07,25.60
2012,08,15,10,08,25.70
2012,08,15,10,09,25.70
2012,08,15,10,10,25.80
2012,08,15,10,11,25.90
2012,08,15,10,12,25.90
2012,08,15,10,13,25.90
2012,08,15,10,14,26.00
2012,08,15,10,15,26.00
2012,08,15,10,16,26.10
2012,08,15,10,17,26.20
2012,08,15,10,18,26.20
2012,08,15,10,19,26.30
2012,08,15,10,20,26.30
2012,08,15,10,21,26.40
2012,08,15,10,22,26.40
2012,08,15,10,23,26.50
2012,08,15,10,24,26.60
2012,08,15,10,25,26.60
2012,08,15,10,26,26.60
2012,08,15,10,27,26.70
2012,08,15,10,28,26.70
2012,08,15,10,29,26.80
2012,08,15,10,30,26.80
2012,08,15,10,31,26.80
2012,08,15,10,32,26.90
2012,08,15,10,33,26.90
2012,08,15,10,34,26.90
2012,08,15,10,35,27.00
2012,08,15,10,36,27.10
2012,08,15,10,37,27.10
2012,08,15,10,38,27.20
2012,08,15,10,39,27.20
2012,08,15,10,40,27.20
2012,08,15,10,41,27.20
2012,08,15,10,42,27.20
2012,08,15,10,43,27.20
2012,08,15,10,44,27.10
2012,08,15,10,45,27.10
2012,08,15,10,46,27.10
2012,08,15,10,47,27.10
2012,08,15,10,48,27.10
2012,08,15,10,49,27.10
2012,08,15,10,50,27.10
2012,08,15,10,51,27.10
2012,08,15,10,52,27.10
2012,08,15,10,53,27.00
2012,08,15,10,54,27.00
2012,08,15,10,55,27.00
2012,08,15,10,56,27.00
2012,08,15,10,57,27.00
2012,08,15,10,58,27.00
2012,08,15,10,59,27.00
2012,08,15,11,00,27.00
2012,08,15,11,01,27.10
2012,08,15,11,02,27.20
2012,08,15,11,03,27.20
2012,08,15,11,04,27.30
2012,08,15,11,05,27.30
2012,08,15,11,06,27.30
2012,08,15,11,07,27.30
2012,08,15,11,08,27.30
2012,08,15,11,09,27.40
2012,08,15,11,10,27.40
2012,08,15,11,11,27.40
2012,08,15,11,12,27.40
2012,08,15,11,13,27.40
2012,08,15,11,14,27.40
2012,08,15,11,15,27.40
2012,08,15,11,16,27.40
2012,08,15,11,17,27.40
2012,08,15,11,18,27.40
2012,08,15,11,19,27.40
2012,08,15,11,20,27.50
2012,08,15,11,21,27.50
2012,08,15,11,22,27.60
2012,08,15,11,23,27.60
2012,08,15,11,24,27.60
2012,08,15,11,25,27.60
2012,08,15,11,26,27.70
2012,08,15,11,27,27.70
2012,08,15,11,28,27.70
2012,08,15,11,29,27.70
2012,08,15,11,30,27.70
2012,08,15,11,31,27.80
2012,08,15,11,32,27.80
2012,08,15,11,33,27.80
2012,08,15,11,34,27.90
2012,08,15,11,35,27.80
2012,08,15,11,36,27.80
2012,08,15,11,37,27.80
2012,08,15,11,38,27.70
2012,08,15,11,39,27.70
2012,08,15,11,40,27.70
2012,08,15,11,41,27.80
2012,08,15,11,42,27.80
2012,08,15,11,43,27.70
2012,08,15,11,44,27.70
2012,08,15,11,45,27.70
2012,08,15,11,46,27.70
2012,08,15,11,47,27.70
2012,08,15,11,48,27.70
2012,08,15,11,49,27.70
2012,08,15,11,50,27.70
2012,08,15,11,51,27.70
2012,08,15,11,52,27.70
2012,08,15,11,53,27.70
2012,08,15,11,54,27.70
2012,08,15,11,55,27.70
2012,08,15,11,56,27.70
2012,08,15,11,57,27.80
2012,08,15,11,58,27.80
2012,08,15,11,59,27.80
2012,08,15,12,00,27.90
2012,08,15,12,01,28.00
2012,08,15,12,02,28.10
2012,08,15,12,03,28.20
2012,08,15,12,04,28.20
2012,08,15,12,05,28.30
2012,08,15,12,06,28.30
2012,08,15,12,07,28.30
2012,08,15,12,08,28.30
2012,08,15,12,09,28.30
2012,08,15,12,10,28.30
2012,08,15,12,11,28.30
2012,08,15,12,12,28.30
2012,08,15,12,13,28.30
2012,08,15,12,14,28.30
2012,08,15,12,15,28.30
2012,08,15,12,16,28.40
2012,08,15,12,17,28.50
2012,08,15,12,18,28.60
2012,08,15,12,19,28.60
2012,08,15,12,20,28.70
2012,08,15,12,21,28.80
2012,08,15,12,22,28.90
2012,08,15,12,23,29.00
2012,08,15,12,24,29.00
2012,08,15,12,25,29.10
2012,08,15,12,26,29.20
2012,08,15,12,27,29.30
2012,08,15,12,28,29.40
2012,08,15,12,29,29.40
2012,08,15,12,30,29.50
2012,08,15,12,31,29.60
2012,08,15,12,32,29.60
2012,08,15,12,33,29.60
2012,08,15,12,34,29.50
2012,08,15,12,35,29.40
2012,08,15,12,36,29.30
2012,08,15,12,37,29.20
2012,08,15,12,38,29.10
2012,08,15,12,39,29.10
2012,08,15,12,40,29.20
2012,08,15,12,41,29.20
2012,08,15,12,42,29.10
2012,08,15,12,43,29.10
2012,08,15,12,44,29.00
2012,08,15,12,45,29.00
2012,08,15,12,46,28.90
2012,08,15,12,47,28.90
2012,08,15,12,48,29.00
2012,08,15,12,49,29.00
2012,08,15,12,50,29.00
2012,08,15,12,51,28.90
2012,08,15,12,52,29.00
2012,08,15,12,53,29.00
2012,08,15,12,54,29.00
2012,08,15,12,55,29.10
2012,08,15,12,56,29.20
2012,08,15,12,57,29.20
2012,08,15,12,58,29.30
2012,08,15,12,59,29.30
2012,08,15,13,00,29.30
2012,08,15,13,01,29.30
2012,08,15,13,02,29.40
2012,08,15,13,03,29.40
2012,08,15,13,04,29.40
2012,08,15,13,05,29.30
2012,08,15,13,06,29.30
2012,08,15,13,07,29.30
2012,08,15,13,08,29.30
2012,08,15,13,09,29.30
2012,08,15,13,10,29.30
2012,08,15,13,11,29.30
2012,08,15,13,12,29.30
2012,08,15,13,13,29.30
2012,08,15,13,14,29.30
2012,08,15,13,15,29.40
2012,08,15,13,16,29.40
2012,08,15,13,17,29.40
2012,08,15,13,18,29.40
2012,08,15,13,19,29.50
2012,08,15,13,20,29.50
2012,08,15,13,21,29.60
2012,08,15,13,22,29.60
2012,08,15,13,23,29.70
2012,08,15,13,24,29.60
2012,08,15,13,25,29.60
2012,08,15,13,26,29.50
2012,08,15,13,27,29.50
2012,08,15,13,28,29.40
2012,08,15,13,29,29.40
2012,08,15,13,30,29.40
2012,08,15,13,31,29.40
2012,08,15,13,32,29.30
2012,08,15,13,33,29.40
2012,08,15,13,34,29.50
2012,08,15,13,35,29.50
2012,08,15,13,36,29.60
2012,08,15,13,37,29.70
2012,08,15,13,38,29.80
2012,08,15,13,39,29.80
2012,08,15,13,40,29.80
2012,08,15,13,41,29.80
2012,08,15,13,42,29.80
2012,08,15,13,43,29.90
2012,08,15,13,44,29.90
2012,08,15,13,45,30.00
2012,08,15,13,46,30.10
2012,08,15,13,47,30.20
2012,08,15,13,48,30.20
2012,08,15,13,49,30.20
2012,08,15,13,50,30.20
2012,08,15,13,51,30.20
2012,08,15,13,52,30.20
2012,08,15,13,53,30.20
2012,08,15,13,54,30.20
2012,08,15,13,55,30.20
2012,08,15,13,56,30.10
2012,08,15,13,57,30.10
2012,08,15,13,58,30.10
2012,08,15,13,59,30.20
2012,08,15,14,00,30.20
2012,08,15,14,01,30.30
2012,08,15,14,02,30.40
2012,08,15,14,03,30.40
2012,08,15,14,04,30.50
2012,08,15,14,05,30.60
2012,08,15,14,06,30.60
2012,08,15,14,07,30.60
2012,08,15,14,08,30.60
2012,08,15,14,09,30.60
2012,08,15,14,10,30.60
2012,08,15,14,11,30.50
2012,08,15,14,12,30.50
2012,08,15,14,13,30.50
2012,08,15,14,14,30.50
2012,08,15,14,15,30.50
2012,08,15,14,16,30.40
2012,08,15,14,17,30.40
2012,08,15,14,18,30.30
2012,08,15,14,19,30.30
2012,08,15,14,20,30.40
2012,08,15,14,21,30.50
2012,08,15,14,22,30.60
2012,08,15,14,23,30.60
2012,08,15,14,24,30.70
2012,08,15,14,25,30.80
2012,08,15,14,26,30.80
2012,08,15,14,27,30.90
2012,08,15,14,28,31.00
2012,08,15,14,29,31.00
2012,08,15,14,30,31.00
2012,08,15,14,31,31.00
2012,08,15,14,32,31.00
2012,08,15,14,33,31.10
2012,08,15,14,34,31.30
2012,08,15,14,35,31.40
2012,08,15,14,36,31.40
2012,08,15,14,37,31.40
2012,08,15,14,38,31.40
2012,08,15,14,39,31.40
2012,08,15,14,40,31.30
2012,08,15,14,41,31.30
2012,08,15,14,42,31.20
2012,08,15,14,43,31.10
2012,08,15,14,44,31.20
2012,08,15,14,45,31.20
2012,08,15,14,46,31.20
2012,08,15,14,47,31.30
2012,08,15,14,48,31.30
2012,08,15,14,49,31.20
2012,08,15,14,50,31.20
2012,08,15,14,51,31.20
2012,08,15,14,52,31.20
2012,08,15,14,53,31.20
2012,08,15,14,54,31.20
2012,08,15,14,55,31.20
2012,08,15,14,56,31.20
2012,08,15,14,57,31.20
2012,08,15,14,58,31.20
2012,08,15,14,59,31.10
2012,08,15,15,00,31.20
2012,08,15,15,01,31.20
2012,08,15,15,02,31.20
2012,08,15,15,03,31.30
2012,08,15,15,04,31.30
2012,08,15,15,05,31.30
2012,08,15,15,06,31.20
2012,08,15,15,07,31.20
2012,08,15,15,08,31.10
2012,08,15,15,09,31.00
2012,08,15,15,10,30.90
2012,08,15,15,11,30.90
2012,08,15,15,12,30.90
2012,08,15,15,13,30.90
2012,08,15,15,14,30.90
2012,08,15,15,15,31.00
2012,08,15,15,16,31.10
2012,08,15,15,17,31.10
2012,08,15,15,18,31.20
2012,08,15,15,19,31.20
2012,08,15,15,20,31.30
2012,08,15,15,21,31.40
2012,08,15,15,22,31.40
2012,08,15,15,23,31.40
2012,08,15,15,24,31.40
2012,08,15,15,25,31.40
2012,08,15,15,26,31.40
2012,08,15,15,27,31.40
2012,08,15,15,28,31.50
2012,08,15,15,29,31.50
2012,08,15,15,30,31.60
2012,08,15,15,31,31.70
2012,08,15,15,32,31.70
2012,08,15,15,33,31.70
2012,08,15,15,34,31.70
2012,08,15,15,35,31.60
2012,08,15,15,36,31.60
2012,08,15,15,37,31.60
2012,08,15,15,38,31.50
2012,08,15,15,39,31.40
2012,08,15,15,40,31.30
2012,08,15,15,41,31.20
2012,08,15,15,42,31.10
2012,08,15,15,43,31.00
2012,08,15,15,44,30.90
2012,08,15,15,45,30.90
2012,08,15,15,46,30.90
2012,08,15,15,47,31.00
2012,08,15,15,48,31.00
2012,08,15,15,49,31.10
2012,08,15,15,50,31.20
2012,08,15,15,51,31.20
2012,08,15,15,52,31.20
2012,08,15,15,53,31.20
2012,08,15,15,54,31.20
2012,08,15,15,55,31.30
2012,08,15,15,56,31.30
2012,08,15,15,57,31.20
2012,08,15,15,58,31.20
2012,08,15,15,59,31.20
2012,08,15,16,00,31.20
2012,08,15,16,01,31.10
2012,08,15,16,02,31.10
2012,08,15,16,03,31.00
2012,08,15,16,04,31.00
2012,08,15,16,05,31.00
2012,08,15,16,06,31.00
2012,08,15,16,07,31.00
2012,08,15,16,08,31.10
2012,08,15,16,09,31.10
2012,08,15,16,10,31.10
2012,08,15,16,11,31.10
2012,08,15,16,12,31.10
2012,08,15,16,13,31.00
2012,08,15,16,14,31.00
2012,08,15,16,15,30.90
2012,08,15,16,16,30.90
2012,08,15,16,17,30.90
2012,08,15,16,18,30.80
2012,08,15,16,19,30.80
2012,08,15,16,20,30.80
2012,08,15,16,21,30.80
2012,08,15,16,22,30.80
2012,08,15,16,23,30.90
2012,08,15,16,24,30.80
2012,08,15,16,25,30.80
2012,08,15,16,26,30.80
2012,08,15,16,27,30.80
2012,08,15,16,28,30.80
2012,08,15,16,29,30.80
2012,08,15,16,30,30.70
2012,08,15,16,31,30.70
2012,08,15,16,32,30.70
2012,08,15,16,33,30.80
2012,08,15,16,34,30.80
2012,08,15,16,35,30.80
2012,08,15,16,36,30.90
2012,08,15,16,37,30.80
2012,08,15,16,38,30.90
2012,08,15,16,39,30.90
2012,08,15,16,40,30.90
2012,08,15,16,41,30.90
2012,08,15,16,42,30.90
2012,08,15,16,43,30.90
2012,08,15,16,44,30.90
2012,08,15,16,45,30.90
2012,08,15,16,46,30.90
2012,08,15,16,47,30.90
2012,08,15,16,48,30.80
2012,08,15,16,49,30.80
2012,08,15,16,50,30.80
2012,08,15,16,51,30.80
2012,08,15,16,52,30.80
2012,08,15,16,53,30.80
2012,08,15,16,54,30.80
2012,08,15,16,55,30.80
2012,08,15,16,56,30.80
2012,08,15,16,57,30.90
2012,08,15,16,58,30.90
2012,08,15,16,59,30.90
2012,08,15,17,00,31.00
2012,08,15,17,01,31.00
2012,08,15,17,02,31.00
2012,08,15,17,03,31.10
2012,08,15,17,04,31.00
2012,08,15,17,05,31.00
2012,08,15,17,06,30.90
2012,08,15,17,07,30.90
2012,08,15,17,08,30.90
2012,08,15,17,09,30.80
2012,08,15,17,10,30.80
2012,08,15,17,11,30.70
2012,08,15,17,12,30.70
2012,08,15,17,13,30.70
2012,08,15,17,14,30.60
2012,08,15,17,15,30.60
2012,08,15,17,16,30.60
2012,08,15,17,17,30.60
2012,08,15,17,18,30.60
2012,08,15,17,19,30.70
2012,08,15,17,20,30.80
2012,08,15,17,21,30.80
2012,08,15,17,22,30.80